Flag Weather past 2 weeks in Fauske, Norway

Now
37 °F

Clear.


Feels Like: 27 °F
Forecast: 27 / 35 °F
Wind: 20 mph from East

Location: Bodo Vi

Current Time: Nov 23, 2014 at 3:40:58 AM

Latest Report: Nov 23, 2014 at 2:50 AM


Visibility: 10 mi

Pressure: 30.24 "Hg

Humidity: 75%

Dew point: 30 °F

Location of FauskeLocation

Historic Weather in Fauske — Graph

°F

Fauske temperature yesterday

Maximum temperature yesterday: 43 °F (at 12:50 AM)
Minimum temperature yesterday: 36 °F (at 2:20 PM)
Average temperature yesterday: 38 °F

Past Weeks' High & Low Weather Summary

 TemperatureHumidityPressure
High48 °F (Nov 9, 2:20 PM)100% (Nov 10, 1:20 PM)30.45 "Hg (Nov 10, 1:20 PM)
Low27 °F (Nov 14, 4:50 AM)44% (Nov 14, 1:50 PM)29.56 "Hg (Nov 8, 1:50 AM)
Average37 °F78%30.10 "Hg
* Reported Nov 8 1:50 AM — Nov 23 1:50 AM, Fauske, Weather by CustomWeather, © 2014

Note: Actual official high and low records may vary slightly from our data, if they occured in-between our weather recording intervals... More about our weather records

Advertising

Fauske weather history for previous 24 hours

 ConditionsComfort  
Time TempWeatherWind HumidityBarometerVisibility
1:50 AM
Nov 23
37 °FClear.18 mph75%30.27 "Hg10 mi
12:50 AM39 °FClear.18 mph75%30.27 "Hg10 mi
11:50 PM
Nov 22
37 °FClear.17 mph81%30.27 "Hg10 mi
11:20 PM39 °FClear.18 mph70%30.27 "Hg10 mi
10:50 PM37 °FClear.16 mph81%30.27 "Hg10 mi
10:20 PM37 °FClear.17 mph81%30.27 "Hg10 mi
9:50 PM37 °FClear.15 mph75%30.27 "Hg10 mi
9:20 PM39 °FClear.17 mph75%30.27 "Hg10 mi
8:50 PM37 °FClear.18 mph81%30.27 "Hg10 mi
8:20 PM37 °FClear.18 mph81%30.27 "Hg10 mi
7:50 PM37 °FClear.21 mph81%30.27 "Hg10 mi
7:20 PM37 °FClear.20 mph81%30.27 "Hg10 mi
6:50 PM37 °FPassing clouds.18 mph81%30.27 "HgN/A
6:20 PM37 °FPassing clouds.17 mph81%30.27 "HgN/A
5:50 PM37 °FPassing clouds.18 mph87%30.27 "HgN/A
5:20 PM36 °FPassing clouds.17 mph93%30.27 "HgN/A
4:50 PM36 °FPassing clouds.16 mph100%30.27 "HgN/A
4:20 PM36 °FPassing clouds.18 mph100%30.27 "HgN/A
3:50 PM36 °FPassing clouds.16 mph100%30.27 "HgN/A
3:20 PM36 °FSnow. Fog.16 mph100%30.30 "HgN/A
2:50 PM36 °FFog.14 mph100%30.30 "Hg0 mi
2:20 PM36 °FSnow. Passing clouds.14 mph100%30.30 "HgN/A
1:50 PM37 °FFog.13 mph100%30.30 "Hg1 mi
1:20 PM37 °FScattered clouds.5 mph100%30.30 "HgN/A
12:50 PM37 °FPartly sunny.9 mph100%30.30 "HgN/A
12:20 PM37 °FFog.12 mph100%30.30 "Hg1 mi
11:50 AM39 °FBroken clouds.10 mph100%30.30 "HgN/A
11:20 AM39 °FBroken clouds.10 mph100%30.30 "HgN/A
10:50 AM39 °FBroken clouds.8 mph100%30.30 "HgN/A
10:20 AM37 °FScattered clouds.8 mph100%30.30 "HgN/A
9:50 AM37 °FScattered clouds.9 mph100%30.30 "HgN/A
9:20 AM39 °FPartly cloudy.6 mph100%30.30 "HgN/A
8:50 AM39 °FPartly cloudy.6 mph100%30.27 "HgN/A
8:20 AM37 °FPartly cloudy.6 mph93%30.27 "HgN/A
7:50 AM39 °FPartly cloudy.3 mph100%30.27 "HgN/A
7:20 AM39 °FPassing clouds.5 mph100%30.27 "HgN/A
6:50 AM39 °FPartly cloudy.3 mph93%30.27 "HgN/A
6:20 AM37 °FPartly cloudy.5 mph100%30.27 "HgN/A
5:50 AM41 °FPassing clouds.6 mph93%30.27 "HgN/A
5:20 AM41 °FPassing clouds.8 mph93%30.27 "HgN/A
4:50 AM41 °FPassing clouds.2 mph100%30.27 "HgN/A
3:50 AM41 °FPartly cloudy.2 mph100%30.27 "HgN/A
Weather by CustomWeather, © 2014

See weather overviewHow to use our weather pages